Regional Weather Roundup
Issued by NWS

Home | Current Version | Previous Version | Graphics & Text | Print | Product List | Glossary On
Versions: 1 2 3 4 5 6 7 8 9 10 11 12 13 14 15 16 17 18 19 20 21 22 23 24 25 26 27 28 29 30 31 32 33 34 35 36 37 38 39 40 41 42 43 44 45 46 47 48 49 50
000
ASUS43 KFSD 282010
RWRSD

WEATHER ROUNDUP FOR SOUTH DAKOTA
NATIONAL WEATHER SERVICE SIOUX FALLS SD
300 PM CDT MON JUL 28 2014

NOTE: "FAIR" INDICATES FEW OR NO CLOUDS BELOW 12,000 FEET WITH NO
SIGNIFICANT WEATHER AND/OR OBSTRUCTIONS TO VISIBILITY.


SDZ001>005-009-010-012>017-282100-
NORTHWEST AND NORTH CENTRAL SOUTH DAKOTA

CITY           SKY/WX    TMP DP  RH WIND       PRES   REMARKS
BUFFALO          N/A     79  52  38 VRB5      30.23F
FAITH            N/A     77  52  41 E12       30.29F
MOBRIDGE       MOSUNNY   73  50  44 CALM      30.27F
$$

SDZ012>016-024>037-041>051-057-063-072>074-282100-
SOUTHWEST AND SOUTH CENTRAL SOUTH DAKOTA

CITY           SKY/WX    TMP DP  RH WIND       PRES   REMARKS
RAPID CTY ARPT SUNNY     79  57  46 SE10      30.29F
PIERRE         SUNNY     77  51  40 VRB3      30.27F
CUSTER         SUNNY     74  52  46 SE9       30.39F
ELLSWORTH AFB  MOSUNNY   79  57  45 SE8       30.29F
PHILIP         SUNNY     80  50  34 MISG      30.27F
PINE RIDGE     SUNNY     80  54  40 CALM      30.28F
WINNER         FAIR      80  50  34 NE8       30.28F
$$

SDZ004>011-016>023-039-040-282100-
NORTHEAST SOUTH DAKOTA

CITY           SKY/WX    TMP DP  RH WIND       PRES   REMARKS
ABERDEEN       CLOUDY    71  50  47 NE8       30.28S
WATERTOWN      CLOUDY    70  49  47 N10       30.27S
SISSETON         N/A     71  51  49 NE9       30.26R
$$

SDZ017-020-022-023-036>040-048>070-282100-
SOUTHEAST SOUTH DAKOTA

CITY           SKY/WX    TMP DP  RH WIND       PRES   REMARKS
SIOUX FALLS    MOSUNNY   74  55  51 N9G22     30.25F
HURON          MOSUNNY   75  52  44 NE9       30.27F
CHAMBERLAIN    MOSUNNY   74  51  43 CALM      30.28F
MITCHELL       MOSUNNY   75  53  46 N8        30.27F
YANKTON          N/A     73  54  49 NW8       30.26
$$

ABBREVIATIONS USED IN REMARKS
   TC - TEMPERATURE IN CELSIUS
  WCI - WIND CHILL INDEX
   HX - HEAT INDEX
  VSB - VISIBILITY




USA.gov is the U.S. government's official web portal to all federal, state and local government web resources and services.